This is the latest recevied weather packets stored in our database for station/object KB4NWJ. If no packets are shown the sender has not sent any weather packets the latest 10 day(s).
| Time | Temp. | Humidity | Pressure | Rain* | Wind** | Luminosity | Snow |
|---|---|---|---|---|---|---|---|
| 1777590363 | 18.89° C | 66% | 1013.1 hPa | 0 mm | - | 63 W/m² | - |
| 1777590061 | 18.89° C | 67% | 1012.9 hPa | 0 mm | - | 85 W/m² | - |
| 1777589757 | 18.89° C | 66% | 1013 hPa | 0 mm | - | 76 W/m² | - |
| 1777589456 | 19.44° C | 66% | 1013 hPa | 0 mm | - | 83 W/m² | - |
| 1777589152 | 18.89° C | 66% | 1012.9 hPa | 0 mm | - | 85 W/m² | - |
| 1777588848 | 19.44° C | 64% | 1013 hPa | 0 mm | - | 85 W/m² | - |
| 1777588544 | 19.44° C | 62% | 1012.9 hPa | 0 mm | - | 92 W/m² | - |
| 1777588240 | 19.44° C | 61% | 1012.8 hPa | 0 mm | - | 103 W/m² | - |
| 1777587934 | 19.44° C | 59% | 1012.8 hPa | 0 mm | - | 105 W/m² | - |
| 1777587631 | 20° C | 58% | 1013.1 hPa | 0 mm | - | 142 W/m² | - |
| 1777587326 | 20° C | 60% | 1013.2 hPa | 0 mm | - | 171 W/m² | - |
| 1777587021 | 20° C | 61% | 1013 hPa | 0 mm | - | 134 W/m² | - |
| 1777586717 | 20° C | 59% | 1012.9 hPa | 0 mm | - | 138 W/m² | - |
| 1777586413 | 20° C | 60% | 1012.8 hPa | 0 mm | - | 135 W/m² | - |
| 1777586113 | 20.56° C | 61% | 1012.9 hPa | 0 mm | - | 170 W/m² | - |
| 1777585812 | 20.56° C | 61% | 1012.7 hPa | 0 mm | - | 167 W/m² | - |
| 1777585511 | 20.56° C | 59% | 1012.5 hPa | 0 mm | - | 170 W/m² | - |
| 1777585207 | 21.11° C | 55% | 1012.7 hPa | 0 mm | - | 179 W/m² | - |
| 1777584903 | 21.11° C | 54% | 1012.6 hPa | 0 mm | - | 273 W/m² | - |
| 1777584601 | 20.56° C | 55% | 1012.8 hPa | 0 mm | - | 200 W/m² | - |
| 1777584297 | 21.11° C | 55% | 1012.6 hPa | 0 mm | - | 246 W/m² | - |
| 1777583993 | 21.67° C | 53% | 1012.6 hPa | 0 mm | - | 365 W/m² | - |
| 1777583693 | 21.11° C | 56% | 1012.4 hPa | 0 mm | - | 422 W/m² | - |
| 1777583392 | 21.67° C | 56% | 1012.7 hPa | 0 mm | - | 412 W/m² | - |
| 1777583091 | 21.67° C | 55% | 1012.4 hPa | 0 mm | - | 391 W/m² | - |
* Rain latest hour (hover to see other rain measurements)
** Current wind speed in m/s (hover to see current wind gust speed)